Time,TemperatureF,DewpointF,PressureIn,WindDirection,WindDirectionDegrees,WindSpeedMPH,WindSpeedGustMPH,Humidity,HourlyPrecipIn,Conditions,Clouds,dailyrainin,SolarRadiationWatts/m^2,SoftwareType,DateUTC
2013-03-02 00:00:00,25.7,24.0,30.21,NNW,338,6.9,6.9,93,0.00,CLR,OVC,0.00,0.0,WeatherDisplay:10.37,2013-03-02 06:00:00,
2013-03-02 00:05:00,25.7,24.0,30.21,NNW,338,6.9,6.9,93,0.00,CLR,OVC,0.00,0.0,WeatherDisplay:10.37,2013-03-02 06:05:00,
2013-03-02 00:10:00,25.5,23.5,30.21,NW,315,6.9,6.9,92,0.00,CLR,OVC,0.00,0.0,WeatherDisplay:10.37,2013-03-02 06:10:00,
2013-03-02 00:15:00,25.5,23.5,30.21,NW,315,6.0,6.0,92,0.00,CLR,OVC,0.00,0.0,WeatherDisplay:10.37,2013-03-02 06:15:00,
2013-03-02 00:20:00,25.5,23.5,30.21,NNW,338,8.1,8.1,92,0.00,CLR,OVC,0.00,0.0,WeatherDisplay:10.37,2013-03-02 06:20:00,
2013-03-02 00:25:00,25.5,23.5,30.21,NNW,338,4.6,4.6,92,0.00,CLR,OVC,0.00,0.0,WeatherDisplay:10.37,2013-03-02 06:25:00,
2013-03-02 00:30:00,25.5,23.5,30.21,WNW,292,7.6,7.6,92,0.00,CLR,OVC,0.00,0.0,WeatherDisplay:10.37,2013-03-02 06:30:00,
2013-03-02 00:35:00,25.5,23.3,30.21,NNW,338,5.8,5.8,91,0.00,CLR,OVC,0.00,0.0,WeatherDisplay:10.37,2013-03-02 06:35:00,
2013-03-02 00:40:00,25.3,23.1,30.21,NW,315,8.1,8.1,91,0.00,CLR,OVC,0.00,0.0,WeatherDisplay:10.37,2013-03-02 06:40:00,
2013-03-02 00:45:00,25.3,23.1,30.21,NNW,338,5.8,5.8,91,0.00,CLR,OVC,0.00,0.0,WeatherDisplay:10.37,2013-03-02 06:45:00,
2013-03-02 00:50:00,25.3,23.1,30.21,NNW,338,5.8,5.8,91,0.00,CLR,OVC,0.00,0.0,WeatherDisplay:10.37,2013-03-02 06:50:00,
2013-03-02 00:55:00,25.3,23.1,30.21,NNW,338,5.8,5.9,91,0.00,CLR,OVC,0.00,0.0,WeatherDisplay:10.37,2013-03-02 06:55:00,
2013-03-02 01:00:00,25.3,22.8,30.21,NNW,338,6.9,6.9,90,0.00,CLR,OVC,0.00,0.0,WeatherDisplay:10.37,2013-03-02 07:00:00,
2013-03-02 01:05:00,25.3,22.8,30.21,NNW,338,9.2,9.2,90,0.00,CLR,OVC,0.00,0.0,WeatherDisplay:10.37,2013-03-02 07:05:00,
2013-03-02 01:10:00,25.3,22.8,30.21,NNW,338,5.8,5.8,90,0.00,CLR,OVC,0.00,0.0,WeatherDisplay:10.37,2013-03-02 07:10:00,
2013-03-02 01:15:00,25.3,22.8,30.24,WNW,292,7.4,7.4,90,0.00,CLR,OVC,0.00,0.0,WeatherDisplay:10.37,2013-03-02 07:15:00,
2013-03-02 01:20:00,25.3,22.8,30.24,NNW,338,5.8,5.8,90,0.00,CLR,OVC,0.00,0.0,WeatherDisplay:10.37,2013-03-02 07:20:00,
2013-03-02 01:25:00,25.3,22.8,30.24,NNW,338,5.8,5.8,90,0.00,CLR,OVC,0.00,0.0,WeatherDisplay:10.37,2013-03-02 07:25:00,
2013-03-02 01:30:00,25.3,24.1,30.21,NNW,338,4.6,4.6,95,0.00,CLR,OVC,0.00,0.0,WeatherDisplay:10.37,2013-03-02 07:30:00,
2013-03-02 01:35:00,25.3,23.1,30.21,NW,315,8.1,8.1,91,0.00,CLR,OVC,0.00,0.0,WeatherDisplay:10.37,2013-03-02 07:35:00,
2013-03-02 01:40:00,25.3,22.8,30.21,NNW,338,5.8,5.8,90,0.00,CLR,OVC,0.00,0.0,WeatherDisplay:10.37,2013-03-02 07:40:00,
2013-03-02 01:45:00,25.3,22.8,30.24,NW,315,6.9,6.9,90,0.00,CLR,OVC,0.00,0.0,WeatherDisplay:10.37,2013-03-02 07:45:00,
2013-03-02 01:50:00,25.3,22.8,30.24,NW,315,5.8,5.8,90,0.00,CLR,OVC,0.00,0.0,WeatherDisplay:10.37,2013-03-02 07:50:00,
2013-03-02 01:55:00,25.3,22.6,30.24,NNW,338,5.8,5.8,89,0.00,CLR,OVC,0.00,0.0,WeatherDisplay:10.37,2013-03-02 07:55:00,
2013-03-02 02:00:00,25.3,22.6,30.21,NW,315,5.6,5.6,89,0.00,CLR,OVC,0.00,0.0,WeatherDisplay:10.37,2013-03-02 08:00:00,
2013-03-02 02:05:00,25.3,22.6,30.21,NNW,338,5.8,5.8,89,0.00,CLR,OVC,0.00,0.0,WeatherDisplay:10.37,2013-03-02 08:05:00,
2013-03-02 02:10:00,25.3,22.6,30.21,NNW,338,6.9,6.9,89,0.00,CLR,OVC,0.00,0.0,WeatherDisplay:10.37,2013-03-02 08:10:00,
2013-03-02 02:15:00,25.3,22.6,30.24,North,0,6.2,6.2,89,0.00,CLR,OVC,0.00,0.0,WeatherDisplay:10.37,2013-03-02 08:15:00,
2013-03-02 02:20:00,25.3,22.6,30.24,NNW,338,4.6,4.6,89,0.00,CLR,OVC,0.00,0.0,WeatherDisplay:10.37,2013-03-02 08:20:00,
2013-03-02 02:25:00,25.2,22.1,30.24,NNW,338,4.7,4.7,88,0.00,CLR,OVC,0.00,0.0,WeatherDisplay:10.37,2013-03-02 08:25:00,
2013-03-02 02:30:00,25.2,22.1,30.21,NW,315,6.9,6.9,88,0.00,CLR,OVC,0.00,0.0,WeatherDisplay:10.37,2013-03-02 08:30:00,
2013-03-02 02:35:00,25.2,22.1,30.21,NNW,338,5.8,5.8,88,0.00,CLR,OVC,0.00,0.0,WeatherDisplay:10.37,2013-03-02 08:35:00,
2013-03-02 02:41:00,25.2,22.1,30.21,NW,315,5.8,5.8,88,0.00,CLR,OVC,0.00,0.0,WeatherDisplay:10.37,2013-03-02 08:41:00,
2013-03-02 02:46:00,25.0,21.9,30.21,NW,315,6.0,6.0,88,0.00,CLR,OVC,0.00,0.0,WeatherDisplay:10.37,2013-03-02 08:46:00,
2013-03-02 02:51:00,25.0,21.9,30.21,NNW,338,5.8,5.8,88,0.00,CLR,OVC,0.00,0.0,WeatherDisplay:10.37,2013-03-02 08:51:00,
2013-03-02 02:56:00,25.0,21.9,30.21,NNW,338,5.8,5.8,88,0.00,CLR,OVC,0.00,0.0,WeatherDisplay:10.37,2013-03-02 08:56:00,
2013-03-02 03:01:00,25.0,21.9,30.21,NNW,338,5.6,5.6,88,0.00,CLR,OVC,0.00,0.0,WeatherDisplay:10.37,2013-03-02 09:01:00,
2013-03-02 03:06:00,25.0,21.9,30.21,NNW,338,4.6,4.6,88,0.00,CLR,OVC,0.00,0.0,WeatherDisplay:10.37,2013-03-02 09:06:00,
2013-03-02 03:11:00,25.0,21.7,30.21,NNW,338,5.8,5.8,87,0.00,CLR,OVC,0.00,0.0,WeatherDisplay:10.37,2013-03-02 09:11:00,
2013-03-02 03:16:00,24.8,21.8,30.21,NNW,338,5.8,5.8,88,0.00,CLR,OVC,0.00,0.0,WeatherDisplay:10.37,2013-03-02 09:16:00,
2013-03-02 03:21:00,24.8,21.8,30.21,NW,315,4.6,4.7,88,0.00,CLR,OVC,0.00,0.0,WeatherDisplay:10.37,2013-03-02 09:21:00,
2013-03-02 03:26:00,24.8,21.5,30.21,NNW,338,5.8,5.8,87,0.00,CLR,OVC,0.00,0.0,WeatherDisplay:10.37,2013-03-02 09:26:00,
2013-03-02 03:31:00,24.8,21.5,30.21,NW,315,4.7,4.7,87,0.00,CLR,OVC,0.00,0.0,WeatherDisplay:10.37,2013-03-02 09:31:00,
2013-03-02 03:36:00,24.8,21.5,30.21,WNW,292,3.5,3.6,87,0.00,CLR,OVC,0.00,0.0,WeatherDisplay:10.37,2013-03-02 09:36:00,
2013-03-02 03:41:00,24.8,21.5,30.21,WNW,292,4.6,4.6,87,0.00,CLR,OVC,0.00,0.0,WeatherDisplay:10.37,2013-03-02 09:41:00,
2013-03-02 03:46:00,24.8,21.5,30.21,NNW,338,4.6,4.6,87,0.00,CLR,OVC,0.00,0.0,WeatherDisplay:10.37,2013-03-02 09:46:00,
2013-03-02 03:51:00,24.6,21.3,30.21,NNW,338,4.6,4.6,87,0.00,CLR,OVC,0.00,0.0,WeatherDisplay:10.37,2013-03-02 09:51:00,
2013-03-02 03:56:00,24.6,21.3,30.21,NNW,338,4.6,4.6,87,0.00,CLR,OVC,0.00,0.0,WeatherDisplay:10.37,2013-03-02 09:56:00,
2013-03-02 04:01:00,24.6,21.3,30.21,NNW,338,3.5,3.5,87,0.00,CLR,OVC,0.00,0.0,WeatherDisplay:10.37,2013-03-02 10:01:00,
2013-03-02 04:06:00,24.6,21.6,30.21,NNW,338,3.5,3.5,88,0.00,CLR,OVC,0.00,0.0,WeatherDisplay:10.37,2013-03-02 10:06:00,
2013-03-02 04:15:00,24.6,21.6,30.21,NNW,338,4.7,4.7,88,0.00,CLR,OVC,0.00,0.0,WeatherDisplay:10.37,2013-03-02 10:15:00,
2013-03-02 04:20:00,24.6,21.6,30.21,NNW,338,5.8,5.8,88,0.00,CLR,OVC,0.00,0.0,WeatherDisplay:10.37,2013-03-02 10:20:00,
2013-03-02 04:25:00,24.6,21.6,30.21,WNW,292,4.6,4.6,88,0.00,CLR,OVC,0.00,0.0,WeatherDisplay:10.37,2013-03-02 10:25:00,
2013-03-02 04:30:00,24.6,21.8,30.21,WNW,292,5.8,5.8,89,0.00,CLR,OVC,0.00,0.0,WeatherDisplay:10.37,2013-03-02 10:30:00,
2013-03-02 04:35:00,24.6,21.8,30.21,NW,315,4.9,4.9,89,0.00,CLR,OVC,0.00,0.0,WeatherDisplay:10.37,2013-03-02 10:35:00,
2013-03-02 04:40:00,24.6,21.8,30.21,NNW,338,4.6,4.6,89,0.00,CLR,OVC,0.00,0.0,WeatherDisplay:10.37,2013-03-02 10:40:00,
2013-03-02 04:45:00,24.6,21.8,30.21,NW,315,4.0,4.0,89,0.00,CLR,OVC,0.00,0.0,WeatherDisplay:10.37,2013-03-02 10:45:00,
2013-03-02 04:50:00,24.6,22.1,30.21,NNW,338,5.8,5.8,90,0.00,CLR,OVC,0.00,0.0,WeatherDisplay:10.37,2013-03-02 10:50:00,
2013-03-02 04:55:00,24.6,22.1,30.21,NNW,338,3.5,3.6,90,0.00,CLR,OVC,0.00,0.0,WeatherDisplay:10.37,2013-03-02 10:55:00,
2013-03-02 05:00:00,24.6,22.1,30.21,NNW,338,5.8,5.8,90,0.00,CLR,OVC,0.00,0.0,WeatherDisplay:10.37,2013-03-02 11:00:00,
2013-03-02 05:05:00,24.6,22.1,30.21,NNW,338,5.8,5.8,90,0.00,CLR,OVC,0.00,0.0,WeatherDisplay:10.37,2013-03-02 11:05:00,
2013-03-02 05:10:00,24.6,22.1,30.21,NNW,338,3.5,3.5,90,0.00,CLR,OVC,0.00,0.0,WeatherDisplay:10.37,2013-03-02 11:10:00,
2013-03-02 05:15:00,24.6,22.4,30.21,NNW,338,5.8,5.8,91,0.00,CLR,OVC,0.00,0.0,WeatherDisplay:10.37,2013-03-02 11:15:00,
2013-03-02 05:20:00,24.6,22.4,30.21,NNW,338,5.8,5.8,91,0.00,CLR,OVC,0.00,0.0,WeatherDisplay:10.37,2013-03-02 11:20:00,
2013-03-02 05:25:00,24.6,22.4,30.21,NW,315,4.9,4.9,91,0.00,CLR,OVC,0.00,0.0,WeatherDisplay:10.37,2013-03-02 11:25:00,
2013-03-02 05:30:00,24.8,22.5,30.24,WNW,292,5.8,5.8,91,0.00,CLR,OVC,0.00,0.0,WeatherDisplay:10.37,2013-03-02 11:30:00,
2013-03-02 05:35:00,24.8,22.3,30.24,WNW,292,4.0,4.0,90,0.00,CLR,OVC,0.00,0.0,WeatherDisplay:10.37,2013-03-02 11:35:00,
2013-03-02 05:40:00,24.8,22.5,30.24,NNW,338,4.9,4.9,91,0.00,CLR,OVC,0.00,0.0,WeatherDisplay:10.37,2013-03-02 11:40:00,
2013-03-02 05:45:00,24.8,22.3,30.24,NNW,338,4.6,4.6,90,0.00,CLR,OVC,0.00,0.0,WeatherDisplay:10.37,2013-03-02 11:45:00,
2013-03-02 05:50:00,24.6,22.1,30.24,NNW,338,3.8,3.8,90,0.00,CLR,OVC,0.00,0.0,WeatherDisplay:10.37,2013-03-02 11:50:00,
2013-03-02 05:55:00,24.6,22.1,30.24,NNW,338,4.6,4.6,90,0.00,CLR,OVC,0.00,0.0,WeatherDisplay:10.37,2013-03-02 11:55:00,
2013-03-02 06:00:00,24.6,22.1,30.24,WNW,292,5.8,5.8,90,0.00,CLR,OVC,0.00,0.0,WeatherDisplay:10.37,2013-03-02 12:00:00,
2013-03-02 06:05:00,24.6,22.1,30.24,WNW,292,5.8,5.8,90,0.00,CLR,OVC,0.00,0.0,WeatherDisplay:10.37,2013-03-02 12:05:00,
2013-03-02 06:10:00,24.6,22.1,30.24,NNW,338,3.5,3.5,90,0.00,CLR,OVC,0.00,0.0,WeatherDisplay:10.37,2013-03-02 12:10:00,
2013-03-02 06:15:00,24.6,22.4,30.24,WNW,292,4.9,4.9,91,0.00,CLR,OVC,0.00,0.0,WeatherDisplay:10.37,2013-03-02 12:15:00,
2013-03-02 06:20:00,24.6,22.4,30.24,NNW,338,6.9,6.9,91,0.00,CLR,OVC,0.00,0.0,WeatherDisplay:10.37,2013-03-02 12:20:00,
2013-03-02 06:26:00,24.6,22.1,30.24,North,0,5.4,5.4,90,0.00,CLR,OVC,0.00,0.0,WeatherDisplay:10.37,2013-03-02 12:26:00,
2013-03-02 06:31:00,24.6,22.1,30.24,NNW,338,5.8,5.8,90,0.00,CLR,OVC,0.00,0.0,WeatherDisplay:10.37,2013-03-02 12:31:00,
2013-03-02 06:36:00,24.8,22.3,30.24,NNW,338,4.6,4.6,90,0.00,CLR,OVC,0.00,0.0,WeatherDisplay:10.37,2013-03-02 12:36:00,
2013-03-02 06:41:00,24.8,22.3,30.24,NW,315,5.8,5.8,90,0.00,CLR,OVC,0.00,0.0,WeatherDisplay:10.37,2013-03-02 12:41:00,
2013-03-02 06:46:00,24.8,22.3,30.24,NNW,338,4.3,4.3,90,0.00,CLR,OVC,0.00,0.0,WeatherDisplay:10.37,2013-03-02 12:46:00,
2013-03-02 06:51:00,24.8,22.3,30.24,NNW,338,4.6,4.6,90,0.00,CLR,OVC,0.00,0.0,WeatherDisplay:10.37,2013-03-02 12:51:00,
2013-03-02 06:56:00,24.8,22.3,30.24,NNW,338,4.6,4.6,90,0.00,CLR,OVC,0.00,0.0,WeatherDisplay:10.37,2013-03-02 12:56:00,
2013-03-02 07:01:00,24.8,22.0,30.21,WNW,292,5.4,5.4,89,0.00,CLR,OVC,0.00,0.0,WeatherDisplay:10.37,2013-03-02 13:01:00,
2013-03-02 07:06:00,24.8,21.8,30.21,WNW,292,5.4,5.4,88,0.00,CLR,OVC,0.00,0.0,WeatherDisplay:10.37,2013-03-02 13:06:00,
2013-03-02 07:11:00,24.6,21.3,30.21,NNW,338,5.8,5.8,87,0.00,CLR,OVC,0.00,0.0,WeatherDisplay:10.37,2013-03-02 13:11:00,
2013-03-02 07:16:00,24.4,20.9,30.24,NNW,338,4.6,4.6,86,0.00,CLR,OVC,0.00,0.0,WeatherDisplay:10.37,2013-03-02 13:16:00,
2013-03-02 07:21:00,24.4,20.6,30.24,NW,315,4.6,4.6,85,0.00,CLR,OVC,0.00,0.0,WeatherDisplay:10.37,2013-03-02 13:21:00,
2013-03-02 07:26:00,24.6,21.0,30.24,NNW,338,4.6,4.6,86,0.00,CLR,OVC,0.00,0.0,WeatherDisplay:10.37,2013-03-02 13:26:00,
2013-03-02 07:31:00,25.2,21.3,30.24,NW,315,3.5,3.5,85,0.00,CLR,OVC,0.00,0.0,WeatherDisplay:10.37,2013-03-02 13:31:00,
2013-03-02 07:36:00,25.5,20.5,30.24,NNW,338,4.6,4.6,81,0.00,CLR,OVC,0.00,0.0,WeatherDisplay:10.37,2013-03-02 13:36:00,
2013-03-02 07:41:00,26.1,20.1,30.24,WNW,292,4.6,4.6,78,0.00,CLR,OVC,0.00,0.0,WeatherDisplay:10.37,2013-03-02 13:41:00,
2013-03-02 07:46:00,26.2,19.7,30.24,NW,315,5.8,5.8,76,0.00,CLR,OVC,0.00,0.0,WeatherDisplay:10.37,2013-03-02 13:46:00,
2013-03-02 07:51:00,26.8,19.3,30.24,NW,315,5.8,5.8,73,0.00,CLR,OVC,0.00,0.0,WeatherDisplay:10.37,2013-03-02 13:51:00,
2013-03-02 07:56:00,27.1,19.3,30.24,NNW,338,8.1,8.1,72,0.00,CLR,OVC,0.00,0.0,WeatherDisplay:10.37,2013-03-02 13:56:00,
2013-03-02 08:01:00,27.3,19.2,30.24,WNW,292,8.1,8.1,71,0.00,CLR,OVC,0.00,0.0,WeatherDisplay:10.37,2013-03-02 14:01:00,
2013-03-02 08:06:00,27.9,19.3,30.24,NW,315,5.8,5.8,70,0.00,CLR,OVC,0.00,0.0,WeatherDisplay:10.37,2013-03-02 14:06:00,
2013-03-02 08:11:00,28.2,19.3,30.24,NNW,338,6.9,6.9,69,0.00,CLR,OVC,0.00,0.0,WeatherDisplay:10.37,2013-03-02 14:11:00,
2013-03-02 08:16:00,28.2,19.3,30.24,NNE,22,8.1,8.1,69,0.00,CLR,OVC,0.00,0.0,WeatherDisplay:10.37,2013-03-02 14:16:00,
2013-03-02 08:21:00,28.4,19.2,30.24,NNW,338,7.4,7.4,68,0.00,CLR,OVC,0.00,0.0,WeatherDisplay:10.37,2013-03-02 14:21:00,
2013-03-02 08:26:00,28.6,19.0,30.24,NNW,338,5.8,5.8,67,0.00,CLR,OVC,0.00,0.0,WeatherDisplay:10.37,2013-03-02 14:26:00,
2013-03-02 08:31:00,28.6,19.0,30.27,NNW,338,5.9,5.9,67,0.00,CLR,OVC,0.00,0.0,WeatherDisplay:10.37,2013-03-02 14:31:00,
2013-03-02 08:36:00,29.1,19.2,30.27,NNW,338,6.9,6.9,66,0.00,CLR,OVC,0.00,0.0,WeatherDisplay:10.37,2013-03-02 14:36:00,
2013-03-02 08:41:00,29.3,19.7,30.27,NNE,22,5.8,5.8,67,0.00,CLR,OVC,0.00,0.0,WeatherDisplay:10.37,2013-03-02 14:41:00,
2013-03-02 08:46:00,28.9,19.0,30.27,NNW,338,8.1,8.1,66,0.00,CLR,OVC,0.00,0.0,WeatherDisplay:10.37,2013-03-02 14:46:00,
2013-03-02 08:51:00,29.5,19.2,30.27,NNW,338,6.9,6.9,65,0.00,CLR,OVC,0.00,0.0,WeatherDisplay:10.37,2013-03-02 14:51:00,
2013-03-02 08:56:00,28.6,18.7,30.27,NNW,338,8.1,8.1,66,0.00,CLR,OVC,0.00,100.0,WeatherDisplay:10.37,2013-03-02 14:56:00,
2013-03-02 09:01:00,27.9,18.0,30.27,NNW,338,9.2,9.2,66,0.00,CLR,OVC,0.00,0.0,WeatherDisplay:10.37,2013-03-02 15:01:00,
2013-03-02 09:06:00,28.9,19.3,30.27,NNW,338,6.9,6.9,67,0.00,CLR,OVC,0.00,0.0,WeatherDisplay:10.37,2013-03-02 15:06:00,
2013-03-02 09:11:00,29.5,19.9,30.27,NW,315,6.2,6.2,67,0.00,CLR,OVC,0.00,100.0,WeatherDisplay:10.37,2013-03-02 15:11:00,
2013-03-02 09:16:00,30.9,20.5,30.30,NNW,338,8.7,8.7,65,0.00,CLR,OVC,0.00,100.0,WeatherDisplay:10.37,2013-03-02 15:16:00,
2013-03-02 09:21:00,30.4,19.3,30.30,NNW,338,6.9,6.9,63,0.00,CLR,OVC,0.00,100.0,WeatherDisplay:10.37,2013-03-02 15:21:00,
2013-03-02 09:26:00,29.3,18.3,30.30,NW,315,8.1,8.1,63,0.00,CLR,OVC,0.00,100.0,WeatherDisplay:10.37,2013-03-02 15:26:00,
2013-03-02 09:31:00,28.9,17.9,30.30,NNW,338,5.8,5.8,63,0.00,CLR,OVC,0.00,100.0,WeatherDisplay:10.37,2013-03-02 15:31:00,
2013-03-02 09:36:00,29.1,18.5,30.30,NNW,338,10.4,10.4,64,0.00,CLR,OVC,0.00,100.0,WeatherDisplay:10.37,2013-03-02 15:36:00,
2013-03-02 09:41:00,29.5,18.4,30.30,NW,315,8.1,8.1,63,0.00,CLR,OVC,0.00,100.0,WeatherDisplay:10.37,2013-03-02 15:41:00,
2013-03-02 09:46:00,30.2,19.1,30.27,NW,315,5.8,5.8,63,0.00,CLR,OVC,0.00,100.0,WeatherDisplay:10.37,2013-03-02 15:46:00,
2013-03-02 09:51:00,30.6,19.5,30.27,NNW,338,8.1,8.1,63,0.00,CLR,OVC,0.00,100.0,WeatherDisplay:10.37,2013-03-02 15:51:00,
2013-03-02 09:56:00,30.6,19.1,30.27,NNW,338,5.8,5.8,62,0.00,CLR,OVC,0.00,100.0,WeatherDisplay:10.37,2013-03-02 15:56:00,
2013-03-02 10:01:00,31.3,19.8,30.24,NNW,338,6.9,6.9,62,0.00,CLR,OVC,0.00,100.0,WeatherDisplay:10.37,2013-03-02 16:01:00,
2013-03-02 10:06:00,31.5,19.9,30.24,NNW,338,6.9,6.9,62,0.00,CLR,OVC,0.00,100.0,WeatherDisplay:10.37,2013-03-02 16:06:00,
2013-03-02 10:11:00,30.7,18.9,30.24,NNW,338,6.9,6.9,61,0.00,CLR,OVC,0.00,100.0,WeatherDisplay:10.37,2013-03-02 16:11:00,
2013-03-02 10:16:00,30.2,18.4,30.24,NW,315,8.5,8.5,61,0.00,CLR,OVC,0.00,100.0,WeatherDisplay:10.37,2013-03-02 16:16:00,
2013-03-02 10:21:00,29.5,17.7,30.24,NNW,338,6.9,6.9,61,0.00,CLR,OVC,0.00,100.0,WeatherDisplay:10.37,2013-03-02 16:21:00,
2013-03-02 10:26:00,30.2,18.7,30.27,NNW,338,10.2,10.2,62,0.00,CLR,OVC,0.00,100.0,WeatherDisplay:10.37,2013-03-02 16:26:00,
2013-03-02 10:31:00,30.4,18.5,30.27,NNW,338,8.1,8.1,61,0.00,CLR,OVC,0.00,100.0,WeatherDisplay:10.37,2013-03-02 16:31:00,
2013-03-02 10:36:00,30.4,18.5,30.27,NNW,338,9.2,9.2,61,0.00,CLR,OVC,0.00,200.0,WeatherDisplay:10.37,2013-03-02 16:36:00,
2013-03-02 10:41:00,29.7,17.8,30.27,WNW,292,13.8,13.8,61,0.00,CLR,OVC,0.00,200.0,WeatherDisplay:10.37,2013-03-02 16:41:00,
2013-03-02 10:46:00,30.4,18.5,30.27,NW,315,9.2,9.2,61,0.00,CLR,OVC,0.00,200.0,WeatherDisplay:10.37,2013-03-02 16:46:00,
2013-03-02 10:51:00,30.7,18.9,30.27,NNW,338,6.9,6.9,61,0.00,CLR,OVC,0.00,200.0,WeatherDisplay:10.37,2013-03-02 16:51:00,
2013-03-02 10:56:00,32.2,20.2,30.27,NNW,338,5.8,5.8,61,0.00,CLR,OVC,0.00,100.0,WeatherDisplay:10.37,2013-03-02 16:56:00,
2013-03-02 11:01:00,31.1,19.2,30.27,NNW,338,8.1,8.1,61,0.00,CLR,OVC,0.00,200.0,WeatherDisplay:10.37,2013-03-02 17:01:00,
2013-03-02 11:06:00,30.4,18.5,30.27,WNW,292,9.8,9.8,61,0.00,CLR,OVC,0.00,200.0,WeatherDisplay:10.37,2013-03-02 17:06:00,
2013-03-02 11:11:00,31.8,19.9,30.27,NNW,338,8.1,8.1,61,0.00,CLR,OVC,0.00,200.0,WeatherDisplay:10.37,2013-03-02 17:11:00,
2013-03-02 11:16:00,32.7,20.4,30.27,NNW,338,6.9,6.9,60,0.00,CLR,OVC,0.00,200.0,WeatherDisplay:10.37,2013-03-02 17:16:00,
2013-03-02 11:21:00,32.9,20.5,30.27,NNW,338,5.9,5.9,60,0.00,CLR,OVC,0.00,200.0,WeatherDisplay:10.37,2013-03-02 17:21:00,
2013-03-02 11:26:00,31.1,18.8,30.27,NNW,338,7.6,7.6,60,0.00,CLR,OVC,0.00,200.0,WeatherDisplay:10.37,2013-03-02 17:26:00,
2013-03-02 11:31:00,31.1,18.8,30.27,WNW,292,9.8,9.8,60,0.00,CLR,OVC,0.00,200.0,WeatherDisplay:10.37,2013-03-02 17:31:00,
2013-03-02 11:36:00,33.8,21.4,30.27,NNW,338,6.9,6.9,60,0.00,CLR,OVC,0.00,500.0,WeatherDisplay:10.37,2013-03-02 17:36:00,
2013-03-02 11:41:00,34.7,21.8,30.27,WNW,292,5.8,5.8,59,0.00,CLR,OVC,0.00,200.0,WeatherDisplay:10.37,2013-03-02 17:41:00,
2013-03-02 11:46:00,31.8,19.1,30.27,WNW,292,9.2,9.2,59,0.00,CLR,OVC,0.00,200.0,WeatherDisplay:10.37,2013-03-02 17:46:00,
2013-03-02 11:51:00,31.1,18.8,30.27,WNW,292,10.9,10.9,60,0.00,CLR,OVC,0.00,200.0,WeatherDisplay:10.37,2013-03-02 17:51:00,
2013-03-02 11:56:00,32.7,20.4,30.27,NNW,338,10.4,10.4,60,0.00,CLR,OVC,0.00,500.0,WeatherDisplay:10.37,2013-03-02 17:56:00,
2013-03-02 12:01:00,32.5,20.2,30.27,NNW,338,8.1,8.1,60,0.00,CLR,OVC,0.00,200.0,WeatherDisplay:10.37,2013-03-02 18:01:00,
2013-03-02 12:06:00,33.3,20.9,30.27,West,270,10.4,10.4,60,0.00,CLR,OVC,0.00,400.0,WeatherDisplay:10.37,2013-03-02 18:06:00,
2013-03-02 12:11:00,35.4,22.5,30.24,WNW,292,5.8,5.8,59,0.00,CLR,OVC,0.00,300.0,WeatherDisplay:10.37,2013-03-02 18:11:00,
2013-03-02 12:16:00,33.6,20.8,30.24,North,0,8.1,8.1,59,0.00,CLR,OVC,0.00,200.0,WeatherDisplay:10.37,2013-03-02 18:16:00,
2013-03-02 12:21:00,35.6,22.3,30.24,NNW,338,5.8,5.8,58,0.00,CLR,OVC,0.00,200.0,WeatherDisplay:10.37,2013-03-02 18:21:00,
2013-03-02 12:26:00,36.1,22.8,30.21,NW,315,5.8,5.8,58,0.00,CLR,OVC,0.00,400.0,WeatherDisplay:10.37,2013-03-02 18:26:00,
2013-03-02 12:31:00,36.3,22.5,30.21,West,270,10.4,10.4,57,0.00,CLR,OVC,0.00,400.0,WeatherDisplay:10.37,2013-03-02 18:31:00,
2013-03-02 12:36:00,36.9,23.4,30.21,NNW,338,5.8,5.8,58,0.00,CLR,OVC,0.00,300.0,WeatherDisplay:10.37,2013-03-02 18:36:00,
2013-03-02 12:41:00,36.5,23.1,30.24,NNW,338,6.9,6.9,58,0.00,CLR,OVC,0.00,400.0,WeatherDisplay:10.37,2013-03-02 18:41:00,
2013-03-02 12:46:00,35.8,22.0,30.24,WNW,292,7.6,7.6,57,0.00,CLR,OVC,0.00,400.0,WeatherDisplay:10.37,2013-03-02 18:46:00,
2013-03-02 12:51:00,33.4,20.2,30.24,NNE,22,8.1,8.1,58,0.00,CLR,OVC,0.00,100.0,WeatherDisplay:10.37,2013-03-02 18:51:00,
2013-03-02 12:56:00,35.4,22.1,30.24,West,270,8.1,8.1,58,0.00,CLR,OVC,0.00,400.0,WeatherDisplay:10.37,2013-03-02 18:56:00,
2013-03-02 13:01:00,35.4,22.1,30.24,NNW,338,9.2,9.2,58,0.00,CLR,OVC,0.00,400.0,WeatherDisplay:10.37,2013-03-02 19:01:00,
2013-03-02 13:06:00,36.0,22.6,30.24,North,0,6.9,6.9,58,0.00,CLR,OVC,0.00,400.0,WeatherDisplay:10.37,2013-03-02 19:06:00,
2013-03-02 13:11:00,36.1,22.8,30.24,North,0,11.5,11.5,58,0.00,CLR,OVC,0.00,400.0,WeatherDisplay:10.37,2013-03-02 19:11:00,
2013-03-02 13:16:00,34.0,20.7,30.24,NNW,338,9.2,9.2,58,0.00,CLR,OVC,0.00,100.0,WeatherDisplay:10.37,2013-03-02 19:16:00,
2013-03-02 13:21:00,34.9,21.6,30.24,WNW,292,9.2,9.2,58,0.00,CLR,OVC,0.00,300.0,WeatherDisplay:10.37,2013-03-02 19:21:00,
2013-03-02 13:26:00,33.8,20.6,30.24,NW,315,8.1,8.1,58,0.00,CLR,OVC,0.00,200.0,WeatherDisplay:10.37,2013-03-02 19:26:00,
2013-03-02 13:31:00,34.0,20.7,30.24,NW,315,7.6,7.8,58,0.00,CLR,OVC,0.00,100.0,WeatherDisplay:10.37,2013-03-02 19:31:00,
2013-03-02 13:36:00,33.3,20.5,30.24,NW,315,9.2,9.2,59,0.00,CLR,OVC,0.00,300.0,WeatherDisplay:10.37,2013-03-02 19:36:00,
2013-03-02 13:41:00,35.6,22.3,30.24,North,0,6.9,6.9,58,0.00,CLR,OVC,0.00,300.0,WeatherDisplay:10.37,2013-03-02 19:41:00,
2013-03-02 13:46:00,36.0,22.6,30.24,WNW,292,9.2,9.2,58,0.00,CLR,OVC,0.00,300.0,WeatherDisplay:10.37,2013-03-02 19:46:00,
2013-03-02 13:52:00,32.9,20.1,30.24,WNW,292,6.9,6.9,59,0.00,SCT,OVC,0.00,100.0,WeatherDisplay:10.37,2013-03-02 19:52:00,
2013-03-02 13:57:00,35.8,22.8,30.21,WNW,292,10.4,10.4,59,0.00,CLR,OVC,0.00,400.0,WeatherDisplay:10.37,2013-03-02 19:57:00,
2013-03-02 14:02:00,35.8,22.4,30.21,WNW,292,8.1,8.1,58,0.00,CLR,OVC,0.00,300.0,WeatherDisplay:10.37,2013-03-02 20:02:00,
2013-03-02 14:07:00,35.2,21.9,30.21,NNW,338,7.8,7.8,58,0.00,BKN,OVC,0.00,100.0,WeatherDisplay:10.37,2013-03-02 20:07:00,
2013-03-02 14:12:00,35.1,21.8,30.24,NW,315,8.1,8.1,58,0.00,CLR,OVC,0.00,300.0,WeatherDisplay:10.37,2013-03-02 20:12:00,
2013-03-02 14:17:00,36.0,22.6,30.24,NNW,338,8.1,8.1,58,0.00,CLR,OVC,0.00,300.0,WeatherDisplay:10.37,2013-03-02 20:17:00,
2013-03-02 14:22:00,35.8,22.4,30.24,WNW,292,9.2,9.2,58,0.00,FEW,OVC,0.00,200.0,WeatherDisplay:10.37,2013-03-02 20:22:00,
2013-03-02 14:27:00,35.8,22.0,30.21,West,270,8.1,8.1,57,0.00,FEW,OVC,0.00,200.0,WeatherDisplay:10.37,2013-03-02 20:27:00,
2013-03-02 14:32:00,35.6,22.3,30.21,WNW,292,9.2,9.2,58,0.00,SCT,OVC,0.00,200.0,WeatherDisplay:10.37,2013-03-02 20:32:00,
2013-03-02 14:37:00,34.5,21.2,30.21,WNW,292,8.1,8.1,58,0.00,SCT,OVC,0.00,100.0,WeatherDisplay:10.37,2013-03-02 20:37:00,
2013-03-02 14:42:00,35.2,21.9,30.21,WNW,292,9.2,9.2,58,0.00,SCT,OVC,0.00,200.0,WeatherDisplay:10.37,2013-03-02 20:42:00,
2013-03-02 14:47:00,36.5,23.1,30.21,WNW,292,10.7,10.7,58,0.00,SCT,OVC,0.00,200.0,WeatherDisplay:10.37,2013-03-02 20:47:00,
2013-03-02 14:52:00,36.0,22.6,30.21,WNW,292,7.1,7.1,58,0.00,SCT,OVC,0.00,200.0,WeatherDisplay:10.37,2013-03-02 20:52:00,
2013-03-02 14:57:00,37.2,23.8,30.21,NNW,338,6.0,6.2,58,0.00,SCT,OVC,0.00,200.0,WeatherDisplay:10.37,2013-03-02 20:57:00,
2013-03-02 15:02:00,37.2,23.4,30.21,NNW,338,8.1,8.1,57,0.00,SCT,OVC,0.00,200.0,WeatherDisplay:10.37,2013-03-02 21:02:00,
2013-03-02 15:07:00,37.8,23.9,30.21,NNW,338,5.8,5.8,57,0.00,SCT,OVC,0.00,200.0,WeatherDisplay:10.37,2013-03-02 21:07:00,
2013-03-02 15:12:00,39.0,25.1,30.21,North,0,4.3,4.3,57,0.00,BKN,OVC,0.00,100.0,WeatherDisplay:10.37,2013-03-02 21:12:00,
2013-03-02 15:17:00,38.3,24.4,30.21,North,0,6.9,6.9,57,0.00,BKN,OVC,0.00,100.0,WeatherDisplay:10.37,2013-03-02 21:17:00,
2013-03-02 15:22:00,41.5,27.0,30.21,SSE,158,3.5,3.5,56,0.00,BKN,OVC,0.00,100.0,WeatherDisplay:10.37,2013-03-02 21:22:00,
2013-03-02 15:27:00,37.9,23.6,30.21,WNW,292,8.1,8.1,56,0.00,BKN,OVC,0.00,100.0,WeatherDisplay:10.37,2013-03-02 21:27:00,
2013-03-02 15:32:00,37.0,23.2,30.21,WNW,292,8.1,8.1,57,0.00,BKN,OVC,0.00,100.0,WeatherDisplay:10.37,2013-03-02 21:32:00,
2013-03-02 15:37:00,38.5,24.1,30.21,West,270,4.6,4.6,56,0.00,BKN,OVC,0.00,100.0,WeatherDisplay:10.37,2013-03-02 21:37:00,
2013-03-02 15:42:00,37.9,24.0,30.21,NW,315,7.6,7.6,57,0.00,BKN,OVC,0.00,100.0,WeatherDisplay:10.37,2013-03-02 21:42:00,
2013-03-02 15:47:00,37.2,22.9,30.21,WNW,292,8.1,8.1,56,0.00,BKN,OVC,0.00,100.0,WeatherDisplay:10.37,2013-03-02 21:47:00,
2013-03-02 15:52:00,39.7,25.7,30.21,North,0,3.5,3.5,57,0.00,BKN,OVC,0.00,100.0,WeatherDisplay:10.37,2013-03-02 21:52:00,
2013-03-02 15:57:00,38.3,24.0,30.21,NW,315,5.8,5.8,56,0.00,CLR,OVC,0.00,0.0,WeatherDisplay:10.37,2013-03-02 21:57:00,
2013-03-02 16:02:00,38.5,24.6,30.21,NNW,338,5.8,5.8,57,0.00,CLR,OVC,0.00,0.0,WeatherDisplay:10.37,2013-03-02 22:02:00,
2013-03-02 16:07:00,39.7,24.9,30.21,NW,315,5.8,5.8,55,0.00,CLR,OVC,0.00,0.0,WeatherDisplay:10.37,2013-03-02 22:07:00,
2013-03-02 16:12:00,39.4,25.0,30.21,NNE,22,5.8,5.8,56,0.00,CLR,OVC,0.00,0.0,WeatherDisplay:10.37,2013-03-02 22:12:00,
2013-03-02 16:17:00,38.5,23.7,30.21,WNW,292,5.8,5.8,55,0.00,CLR,OVC,0.00,0.0,WeatherDisplay:10.37,2013-03-02 22:17:00,
2013-03-02 16:22:00,38.3,23.5,30.21,NW,315,6.9,6.9,55,0.00,CLR,OVC,0.00,0.0,WeatherDisplay:10.37,2013-03-02 22:22:00,
2013-03-02 16:27:00,37.4,22.3,30.21,NW,315,6.9,6.9,54,0.00,CLR,OVC,0.00,0.0,WeatherDisplay:10.37,2013-03-02 22:27:00,
2013-03-02 16:32:00,39.0,24.6,30.21,NW,315,5.8,5.8,56,0.00,CLR,OVC,0.00,0.0,WeatherDisplay:10.37,2013-03-02 22:32:00,
2013-03-02 16:37:00,38.1,23.4,30.21,WNW,292,5.8,5.8,55,0.00,CLR,OVC,0.00,0.0,WeatherDisplay:10.37,2013-03-02 22:37:00,
2013-03-02 16:42:00,39.2,24.4,30.18,WNW,292,5.8,5.8,55,0.00,CLR,OVC,0.00,0.0,WeatherDisplay:10.37,2013-03-02 22:42:00,
2013-03-02 16:47:00,39.2,24.4,30.18,WNW,292,5.8,5.8,55,0.00,CLR,OVC,0.00,0.0,WeatherDisplay:10.37,2013-03-02 22:47:00,
2013-03-02 16:52:00,38.8,24.0,30.18,NNW,338,5.8,5.8,55,0.00,CLR,OVC,0.00,0.0,WeatherDisplay:10.37,2013-03-02 22:52:00,
2013-03-02 16:57:00,39.7,24.4,30.18,NNW,338,4.6,4.6,54,0.00,CLR,OVC,0.00,0.0,WeatherDisplay:10.37,2013-03-02 22:57:00,
2013-03-02 17:02:00,41.0,25.6,30.18,WNW,292,3.8,3.8,54,0.00,CLR,OVC,0.00,0.0,WeatherDisplay:10.37,2013-03-02 23:02:00,
2013-03-02 17:07:00,40.5,25.1,30.18,WNW,292,5.8,5.8,54,0.00,CLR,OVC,0.00,0.0,WeatherDisplay:10.37,2013-03-02 23:07:00,
2013-03-02 17:12:00,39.7,24.0,30.18,NW,315,5.8,5.8,53,0.00,CLR,OVC,0.00,0.0,WeatherDisplay:10.37,2013-03-02 23:12:00,
2013-03-02 17:17:00,39.7,24.0,30.18,NNW,338,5.8,5.8,53,0.00,CLR,OVC,0.00,0.0,WeatherDisplay:10.37,2013-03-02 23:17:00,
2013-03-02 17:22:00,40.3,24.5,30.18,NNW,338,3.5,3.5,53,0.00,CLR,OVC,0.00,0.0,WeatherDisplay:10.37,2013-03-02 23:22:00,
2013-03-02 17:27:00,41.2,25.3,30.18,NNW,338,4.6,4.6,53,0.00,CLR,OVC,0.00,0.0,WeatherDisplay:10.37,2013-03-02 23:27:00,
2013-03-02 17:32:00,38.8,23.6,30.18,NNW,338,5.8,5.8,54,0.00,CLR,OVC,0.00,0.0,WeatherDisplay:10.37,2013-03-02 23:32:00,
2013-03-02 17:37:00,37.9,22.8,30.18,NW,315,4.9,4.9,54,0.00,CLR,OVC,0.00,0.0,WeatherDisplay:10.37,2013-03-02 23:37:00,
2013-03-02 17:42:00,37.4,22.3,30.21,NNW,338,5.8,5.8,54,0.00,CLR,OVC,0.00,0.0,WeatherDisplay:10.37,2013-03-02 23:42:00,
2013-03-02 17:47:00,37.4,22.7,30.21,NNW,338,5.8,5.8,55,0.00,CLR,OVC,0.00,0.0,WeatherDisplay:10.37,2013-03-02 23:47:00,
2013-03-02 17:52:00,36.9,22.6,30.21,NW,315,4.6,4.6,56,0.00,CLR,OVC,0.00,0.0,WeatherDisplay:10.37,2013-03-02 23:52:00,
2013-03-02 17:57:00,36.1,21.9,30.21,WNW,292,3.5,3.5,56,0.00,CLR,OVC,0.00,0.0,WeatherDisplay:10.37,2013-03-02 23:57:00,
2013-03-02 18:02:00,35.6,21.4,30.21,WNW,292,3.5,3.5,56,0.00,CLR,OVC,0.00,0.0,WeatherDisplay:10.37,2013-03-03 00:02:00,
2013-03-02 18:07:00,34.7,21.0,30.21,NNW,338,2.3,2.3,57,0.00,CLR,OVC,0.00,0.0,WeatherDisplay:10.37,2013-03-03 00:07:00,
2013-03-02 18:12:00,32.9,19.7,30.21,WNW,292,2.3,2.3,58,0.00,CLR,OVC,0.00,0.0,WeatherDisplay:10.37,2013-03-03 00:12:00,
2013-03-02 18:17:00,31.8,18.7,30.21,WNW,292,1.1,1.4,58,0.00,CLR,OVC,0.00,0.0,WeatherDisplay:10.37,2013-03-03 00:17:00,
2013-03-02 18:22:00,30.9,17.9,30.21,WNW,292,0.0,0.0,58,0.00,CLR,OVC,0.00,0.0,WeatherDisplay:10.37,2013-03-03 00:22:00,
2013-03-02 18:27:00,30.0,17.4,30.21,WNW,292,0.0,0.0,59,0.00,CLR,OVC,0.00,0.0,WeatherDisplay:10.37,2013-03-03 00:27:00,
2013-03-02 18:32:00,29.1,16.6,30.21,WNW,292,0.0,0.0,59,0.00,CLR,OVC,0.00,0.0,WeatherDisplay:10.37,2013-03-03 00:32:00,
2013-03-02 18:37:00,28.6,16.1,30.21,WNW,292,0.0,0.0,59,0.00,CLR,OVC,0.00,0.0,WeatherDisplay:10.37,2013-03-03 00:37:00,
2013-03-02 18:43:00,27.9,15.8,30.21,WNW,292,0.0,0.0,60,0.00,CLR,OVC,0.00,0.0,WeatherDisplay:10.37,2013-03-03 00:43:00,
2013-03-02 18:48:00,27.5,15.4,30.21,WNW,292,0.0,0.0,60,0.00,CLR,OVC,0.00,0.0,WeatherDisplay:10.37,2013-03-03 00:48:00,
2013-03-02 18:53:00,27.3,15.2,30.21,WNW,292,0.0,0.0,60,0.00,CLR,OVC,0.00,0.0,WeatherDisplay:10.37,2013-03-03 00:53:00,
2013-03-02 18:58:00,27.0,14.9,30.21,WNW,292,0.0,0.0,60,0.00,CLR,OVC,0.00,0.0,WeatherDisplay:10.37,2013-03-03 00:58:00,
2013-03-02 19:03:00,26.6,14.9,30.21,WNW,292,0.0,0.0,61,0.00,CLR,OVC,0.00,0.0,WeatherDisplay:10.37,2013-03-03 01:03:00,
2013-03-02 19:08:00,26.1,14.4,30.21,WNW,292,0.0,0.0,61,0.00,CLR,OVC,0.00,0.0,WeatherDisplay:10.37,2013-03-03 01:08:00,
2013-03-02 19:13:00,25.9,14.6,30.21,WNW,292,0.0,0.0,62,0.00,CLR,OVC,0.00,0.0,WeatherDisplay:10.37,2013-03-03 01:13:00,
2013-03-02 19:18:00,25.9,14.6,30.21,WNW,292,0.0,0.0,62,0.00,CLR,OVC,0.00,0.0,WeatherDisplay:10.37,2013-03-03 01:18:00,
2013-03-02 19:23:00,25.7,14.5,30.21,WNW,292,0.0,0.0,62,0.00,CLR,OVC,0.00,0.0,WeatherDisplay:10.37,2013-03-03 01:23:00,
2013-03-02 19:28:00,25.5,14.3,30.18,WNW,292,0.0,0.0,62,0.00,CLR,OVC,0.00,0.0,WeatherDisplay:10.37,2013-03-03 01:28:00,
2013-03-02 19:33:00,25.3,14.5,30.18,WNW,292,0.0,0.0,63,0.00,CLR,OVC,0.00,0.0,WeatherDisplay:10.37,2013-03-03 01:33:00,
2013-03-02 19:38:00,25.2,14.7,30.18,WNW,292,0.0,0.0,64,0.00,CLR,OVC,0.00,0.0,WeatherDisplay:10.37,2013-03-03 01:38:00,
2013-03-02 19:43:00,25.0,14.5,30.18,WNW,292,0.0,0.0,64,0.00,CLR,OVC,0.00,0.0,WeatherDisplay:10.37,2013-03-03 01:43:00,
2013-03-02 19:48:00,24.4,14.4,30.18,WNW,292,0.0,0.0,65,0.00,CLR,OVC,0.00,0.0,WeatherDisplay:10.37,2013-03-03 01:48:00,
2013-03-02 19:53:00,23.9,13.8,30.18,WNW,292,0.0,0.0,65,0.00,CLR,OVC,0.00,0.0,WeatherDisplay:10.37,2013-03-03 01:53:00,
2013-03-02 19:58:00,23.9,14.5,30.18,NE,45,0.0,0.0,67,0.00,CLR,OVC,0.00,0.0,WeatherDisplay:10.37,2013-03-03 01:58:00,
2013-03-02 20:03:00,23.7,14.7,30.18,NE,45,0.0,0.0,68,0.00,CLR,OVC,0.00,0.0,WeatherDisplay:10.37,2013-03-03 02:03:00,
2013-03-02 20:08:00,23.7,14.7,30.18,NE,45,0.0,0.0,68,0.00,CLR,OVC,0.00,0.0,WeatherDisplay:10.37,2013-03-03 02:08:00,
2013-03-02 20:13:00,23.4,14.0,30.15,NE,45,0.0,0.0,67,0.00,CLR,OVC,0.00,0.0,WeatherDisplay:10.37,2013-03-03 02:13:00,
2013-03-02 20:18:00,23.4,14.7,30.15,NE,45,0.0,0.0,69,0.00,CLR,OVC,0.00,0.0,WeatherDisplay:10.37,2013-03-03 02:18:00,
2013-03-02 20:23:00,23.4,16.0,30.15,ENE,68,0.0,0.0,73,0.00,CLR,OVC,0.00,0.0,WeatherDisplay:10.37,2013-03-03 02:23:00,
2013-03-02 20:28:00,23.5,16.5,30.18,East,90,2.0,0.0,74,0.00,CLR,OVC,0.00,0.0,WeatherDisplay:10.37,2013-03-03 02:28:00,
2013-03-02 20:33:00,23.5,15.8,30.18,East,90,0.0,0.0,72,0.00,CLR,OVC,0.00,0.0,WeatherDisplay:10.37,2013-03-03 02:33:00,
2013-03-02 20:38:00,23.0,15.6,30.18,East,90,0.0,0.0,73,0.00,CLR,OVC,0.00,0.0,WeatherDisplay:10.37,2013-03-03 02:38:00,
2013-03-02 20:43:00,22.6,15.3,30.18,East,90,0.0,0.0,73,0.00,CLR,OVC,0.00,0.0,WeatherDisplay:10.37,2013-03-03 02:43:00,
2013-03-02 20:48:00,22.5,14.8,30.18,East,90,0.0,0.0,72,0.00,CLR,OVC,0.00,0.0,WeatherDisplay:10.37,2013-03-03 02:48:00,
2013-03-02 20:53:00,22.5,15.1,30.18,East,90,0.0,0.0,73,0.00,CLR,OVC,0.00,0.0,WeatherDisplay:10.37,2013-03-03 02:53:00,
2013-03-02 20:58:00,22.3,14.9,30.18,East,90,0.0,0.0,73,0.00,CLR,OVC,0.00,0.0,WeatherDisplay:10.37,2013-03-03 02:58:00,
2013-03-02 21:03:00,22.5,15.1,30.18,East,90,0.0,0.0,73,0.00,CLR,OVC,0.00,0.0,WeatherDisplay:10.37,2013-03-03 03:03:00,
2013-03-02 21:08:00,22.5,15.4,30.18,East,90,0.0,0.0,74,0.00,CLR,OVC,0.00,0.0,WeatherDisplay:10.37,2013-03-03 03:08:00,
2013-03-02 21:13:00,22.3,15.2,30.18,East,90,0.0,0.0,74,0.00,CLR,OVC,0.00,0.0,WeatherDisplay:10.37,2013-03-03 03:13:00,
2013-03-02 21:18:00,21.9,14.9,30.18,East,90,0.0,0.0,74,0.00,CLR,OVC,0.00,0.0,WeatherDisplay:10.37,2013-03-03 03:18:00,
2013-03-02 21:23:00,21.9,14.9,30.18,East,90,0.0,0.0,74,0.00,CLR,OVC,0.00,0.0,WeatherDisplay:10.37,2013-03-03 03:23:00,
2013-03-02 21:28:00,22.5,17.2,30.18,ENE,68,1.1,0.0,80,0.00,CLR,OVC,0.00,0.0,WeatherDisplay:10.37,2013-03-03 03:28:00,
2013-03-02 21:33:00,22.6,16.5,30.18,ESE,112,0.0,0.0,77,0.00,CLR,OVC,0.00,0.0,WeatherDisplay:10.37,2013-03-03 03:33:00,
2013-03-02 21:38:00,22.5,16.3,30.18,ESE,112,0.0,0.0,77,0.00,CLR,OVC,0.00,0.0,WeatherDisplay:10.37,2013-03-03 03:38:00,
2013-03-02 21:43:00,22.3,16.2,30.18,ESE,112,0.0,0.0,77,0.00,CLR,OVC,0.00,0.0,WeatherDisplay:10.37,2013-03-03 03:43:00,
2013-03-02 21:48:00,22.1,16.0,30.18,ESE,112,0.0,0.0,77,0.00,CLR,OVC,0.00,0.0,WeatherDisplay:10.37,2013-03-03 03:48:00,
2013-03-02 21:53:00,23.0,17.5,30.18,ESE,112,1.1,0.0,79,0.00,CLR,OVC,0.00,0.0,WeatherDisplay:10.37,2013-03-03 03:53:00,
2013-03-02 21:58:00,23.0,17.5,30.18,ESE,112,0.0,0.0,79,0.00,CLR,OVC,0.00,0.0,WeatherDisplay:10.37,2013-03-03 03:58:00,
2013-03-02 22:03:00,23.0,17.2,30.18,ESE,112,0.0,0.0,78,0.00,CLR,OVC,0.00,0.0,WeatherDisplay:10.37,2013-03-03 04:03:00,
2013-03-02 22:08:00,23.0,17.5,30.18,ESE,112,0.0,0.0,79,0.00,CLR,OVC,0.00,0.0,WeatherDisplay:10.37,2013-03-03 04:08:00,
2013-03-02 22:13:00,22.8,17.3,30.15,SE,135,0.0,0.0,79,0.00,CLR,OVC,0.00,0.0,WeatherDisplay:10.37,2013-03-03 04:13:00,
2013-03-02 22:18:00,22.8,17.3,30.15,ESE,112,0.0,0.0,79,0.00,CLR,OVC,0.00,0.0,WeatherDisplay:10.37,2013-03-03 04:18:00,
2013-03-02 22:23:00,22.8,17.3,30.15,SE,135,0.0,0.0,79,0.00,CLR,OVC,0.00,0.0,WeatherDisplay:10.37,2013-03-03 04:23:00,
2013-03-02 22:29:00,23.4,17.8,30.18,ESE,112,0.0,0.0,79,0.00,CLR,OVC,0.00,0.0,WeatherDisplay:10.37,2013-03-03 04:29:00,
2013-03-02 22:34:00,23.5,18.3,30.18,ESE,112,0.0,0.0,80,0.00,CLR,OVC,0.00,0.0,WeatherDisplay:10.37,2013-03-03 04:34:00,
2013-03-02 22:39:00,23.5,18.3,30.18,SE,135,0.0,0.0,80,0.00,CLR,OVC,0.00,0.0,WeatherDisplay:10.37,2013-03-03 04:39:00,
2013-03-02 22:44:00,23.9,18.9,30.18,ESE,112,0.0,0.0,81,0.00,CLR,OVC,0.00,0.0,WeatherDisplay:10.37,2013-03-03 04:44:00,
2013-03-02 22:49:00,24.4,20.0,30.18,SE,135,0.0,0.0,83,0.00,CLR,OVC,0.00,0.0,WeatherDisplay:10.37,2013-03-03 04:49:00,
2013-03-02 22:54:00,25.2,21.3,30.18,SE,135,1.1,1.6,85,0.00,CLR,OVC,0.00,0.0,WeatherDisplay:10.37,2013-03-03 04:54:00,
2013-03-02 22:59:00,25.5,21.4,30.18,SE,135,0.0,0.0,84,0.00,CLR,OVC,0.00,0.0,WeatherDisplay:10.37,2013-03-03 04:59:00,
2013-03-02 23:00:00,25.5,21.1,30.18,SE,135,0.0,0.0,83,0.00,CLR,OVC,0.00,0.0,WeatherDisplay:10.37,2013-03-03 05:00:00,
2013-03-02 23:05:00,25.9,21.1,30.18,ESE,112,0.0,0.0,82,0.00,CLR,OVC,0.00,0.0,WeatherDisplay:10.37,2013-03-03 05:05:00,
2013-03-02 23:10:00,25.9,20.9,30.18,ESE,112,0.0,0.0,81,0.00,CLR,OVC,0.00,0.0,WeatherDisplay:10.37,2013-03-03 05:10:00,
2013-03-02 23:15:00,25.9,20.3,30.18,ESE,112,2.3,2.3,79,0.00,CLR,OVC,0.00,0.0,WeatherDisplay:10.37,2013-03-03 05:15:00,
2013-03-02 23:20:00,25.5,19.6,30.18,SE,135,0.0,0.0,78,0.00,CLR,OVC,0.00,0.0,WeatherDisplay:10.37,2013-03-03 05:20:00,
2013-03-02 23:25:00,25.3,19.1,30.18,SSE,158,0.0,0.0,77,0.00,CLR,OVC,0.00,0.0,WeatherDisplay:10.37,2013-03-03 05:25:00,
2013-03-02 23:30:00,24.8,18.9,30.18,SSE,158,0.0,0.0,78,0.00,CLR,OVC,0.00,0.0,WeatherDisplay:10.37,2013-03-03 05:30:00,
2013-03-02 23:35:00,24.8,19.2,30.18,SE,135,2.4,2.4,79,0.00,CLR,OVC,0.00,0.0,WeatherDisplay:10.37,2013-03-03 05:35:00,
2013-03-02 23:40:00,25.0,19.4,30.18,SSE,158,2.3,2.3,79,0.00,CLR,OVC,0.00,0.0,WeatherDisplay:10.37,2013-03-03 05:40:00,
2013-03-02 23:45:00,25.0,19.1,30.15,SE,135,2.6,2.6,78,0.00,CLR,OVC,0.00,0.0,WeatherDisplay:10.37,2013-03-03 05:45:00,
2013-03-02 23:50:00,24.8,19.2,30.15,ESE,112,2.3,0.0,79,0.00,CLR,OVC,0.00,0.0,WeatherDisplay:10.37,2013-03-03 05:50:00,
2013-03-02 23:55:00,24.4,18.6,30.15,SE,135,2.3,2.3,78,0.00,CLR,OVC,0.00,0.0,WeatherDisplay:10.37,2013-03-03 05:55:00,